Location: Unspecified
(0.0000°N, 0.0000°E)
Time: 20:25:20
(UTC+00:00)

DMSP 5D-2 F13 DEB - Pass Details

Date: 16 February 2026
Orbit: 782 x 824 km, 98.9° (Epoch: 12 March)

Event Time Altitude Azimuth Distance (km) Brightness Sun altitude
Rises 19:20:03 0° 169° (S) 3,279 ? -16.1°
Reaches altitude 10° 19:22:23 10° 170° (S) 2,344 ? -16.7°
Maximum altitude 19:27:32 82° 256° (WSW) 793 ? -18.0°
Drops below altitude 10° 19:32:41 10° 345° (NNW) 2,327 ? -19.2°
Sets 19:34:59 0° 346° (NNW) 3,253 ? -19.8°
